This is the latest recevied weather packets stored in our database for station/object KD8OZS. If no packets are shown the sender has not sent any weather packets the latest 10 day(s).
| Time | Temp. | Humidity | Pressure | Rain* | Wind** | Luminosity | Snow |
|---|---|---|---|---|---|---|---|
| 1777981239 | 15° C | 85% | 999.2 hPa | 0 mm | - | 29 W/m² | - |
| 1777980936 | 15° C | 83% | 998.5 hPa | 0 mm | - | 40 W/m² | - |
| 1777980632 | 15° C | 84% | 998.8 hPa | 0 mm | - | 43 W/m² | - |
| 1777980328 | 15° C | 83% | 998.8 hPa | 0 mm | - | 25 W/m² | - |
| 1777980026 | 15° C | 83% | 998.7 hPa | 0 mm | - | 11 W/m² | - |
| 1777979720 | 15° C | 83% | 998.7 hPa | 1.78 mm | - | 5 W/m² | - |
| 1777979417 | 15.56° C | 81% | 999 hPa | 1.78 mm | - | 5 W/m² | - |
| 1777979114 | 15.56° C | 79% | 998.5 hPa | 0 mm | - | 6 W/m² | - |
| 1777978810 | 16.11° C | 77% | 998.7 hPa | 0 mm | - | 5 W/m² | - |
| 1777978507 | 16.11° C | 76% | 998.6 hPa | 0 mm | - | 3 W/m² | - |
| 1777978203 | 16.11° C | 76% | 998.8 hPa | 0 mm | - | 2 W/m² | - |
| 1777977900 | 16.11° C | 76% | 998.8 hPa | 0 mm | - | 2 W/m² | - |
| 1777977597 | 16.11° C | 77% | 998.7 hPa | 0 mm | - | 2 W/m² | - |
| 1777977294 | 16.11° C | 77% | 998.8 hPa | 0 mm | - | 0 W/m² | - |
| 1777976991 | 16.11° C | 76% | 999 hPa | 0 mm | - | 0 W/m² | - |
| 1777976688 | 16.11° C | 76% | 998.8 hPa | 0 mm | - | 0 W/m² | - |
| 1777976385 | 16.11° C | 75% | 998.8 hPa | 0 mm | - | 0 W/m² | - |
| 1777976078 | 16.11° C | 75% | 998.6 hPa | 0 mm | - | 0 W/m² | - |
| 1777975774 | 16.67° C | 76% | 998.7 hPa | 0 mm | - | 0 W/m² | - |
| 1777975472 | 16.67° C | 74% | 998.6 hPa | 0 mm | - | 0 W/m² | - |
| 1777975167 | 16.67° C | 74% | 998.5 hPa | 0 mm | - | 0 W/m² | - |
| 1777974865 | 16.67° C | 74% | 998.5 hPa | 0 mm | - | 0 W/m² | - |
| 1777974560 | 16.67° C | 73% | 998.5 hPa | 0 mm | - | 0 W/m² | - |
| 1777974258 | 16.67° C | 74% | 998.5 hPa | 0 mm | - | 0 W/m² | - |
| 1777973954 | 16.67° C | 73% | 998.4 hPa | 0 mm | - | 0 W/m² | - |
* Rain latest hour (hover to see other rain measurements)
** Current wind speed in m/s (hover to see current wind gust speed)